Preview of NWS' New Version of Forecast
This preview is not operational and should not be used for support decisions.

Regional Weather Roundup (RWR)

Issued by National Weather Service (NWS)

                            
000
ASUS43 KMKX 201611
RWRWI 

WISCONSIN REGIONAL WEATHER ROUNDUP
NATIONAL WEATHER SERVICE MILWAUKEE/SULLIVAN WI
1100 AM CDT THU JUN 20 2019

NOTE: "FAIR" INDICATES FEW OR NO CLOUDS BELOW 12,000 FEET WITH NO
SIGNIFICANT WEATHER AND/OR OBSTRUCTIONS TO VISIBILITY.

WIZ001-002-006>008-014>016-023>028-201700-
NORTHWEST WISCONSIN
  
CITY           SKY/WX    TMP DP  RH WIND       PRES   REMARKS
SUPERIOR ARPT  FAIR      62  48  61 NE10      29.86S                  
ASHLAND        FAIR      62  53  72 N3        29.87S                  
HAYWARD        FAIR      67  47  48 SE10      29.85F                  
SIREN          FAIR      70  42  35 E5        29.84R                  
CUMBERLAND     FAIR      66  43  42 NE8       29.84S                  
RICE LAKE      FAIR      68  44  42 NE7       29.84S                  
CHETEK         FAIR      66  47  50 NE3       29.83F                  
LADYSMITH      FAIR      65  49  55 NE5       29.85S                  
EAU CLAIRE     FAIR      69  47  45 VRB6      29.80F                  
MENOMONIE      FAIR      66  44  43 E7        29.81S                  
NEW RICHMOND   FAIR      69  42  38 E9        29.81S                  
OSCEOLA        FAIR      68  45  42 E9        29.84R                  
$$
 
WIZ003>005-009-010-017-018-201700-
NORTH CENTRAL WISCONSIN
  
CITY           SKY/WX    TMP DP  RH WIND       PRES   REMARKS
MANITOWISH WTR FAIR      65  47  52 NE8       29.85S                  
ARBOR VITAE    FAIR      66  49  55 CALM      29.84S                  
WOODRUFF       FAIR      66  49  55 CALM      29.84S                  
RHINELANDER    FAIR      69  49  48 VRB5      29.84R                  
EAGLE RIVER    FAIR      66  43  42 NE9       29.84R                  
LAND O LAKES   FAIR      66  43  43 NE8       29.86R                  
PHILLIPS       PTSUNNY   65  49  56 E9        29.82F                  
TOMAHAWK       FAIR      65  50  57 CALM      29.83F                  
MEDFORD        FAIR      65  49  57 NE8       29.81F                  
MERRILL        FAIR      67  52  58 NE5       29.82S                  
$$
 
WIZ029-030-035-036-043>047-201700-
CENTRAL WISCONSIN
  
CITY           SKY/WX    TMP DP  RH WIND       PRES   REMARKS
WAUSAU         FAIR      68  51  54 NE12      29.79R                  
MOSINEE        MOSUNNY   66  54  63 NE6       29.81F                  
MARSHFIELD     CLOUDY    69  50  50 NE8       29.79F                  
STEVENS POINT  FAIR      67  52  58 E12       29.80S                  
WAUPACA        FAIR      71  54  55 N8        29.79R                  
WAUTOMA        FAIR      68  54  60 NE9       29.78R                  
WISC RAPIDS    FAIR      70  52  52 E8        29.79F                  
CAMP DOUGLAS   MOSUNNY   70  54  56 N5        29.78F                  
$$
 
WIZ011>013-019>022-031-037>040-048>050-201700-
NORTHEAST WISCONSIN
  
CITY           SKY/WX    TMP DP  RH WIND       PRES   REMARKS
ANTIGO         FAIR      65  53  64 NE7       29.83R                  
SHAWANO        FAIR      72  56  57 NE5       29.78S                  
OCONTO         FAIR      68  53  57 NE9       29.78R                  
STURGEON BAY   FAIR      64  54  69 N8        29.78R                  
GREEN BAY      FAIR      66  55  67 NE14      29.77S                  
MANITOWOC      FAIR      64  53  67 N12       29.75S                  
APPLETON       MOSUNNY   66  48  52 N12       29.76R                  
CLINTONVILLE   FAIR      67  51  57 N6        29.78S                  
OSHKOSH        FAIR      67  55  65 N15       29.76R                  
$$
 
WIZ032>034-041-042-053>061-201700-
SOUTHWEST WISCONSIN
  
CITY           SKY/WX    TMP DP  RH WIND       PRES   REMARKS
LA CROSSE      FAIR      72  54  53 NW7       29.79F                  
SPARTA         FAIR      69  51  52 NE8       29.79F                  
VIROQUA        PTSUNNY   68  57  66 N7        29.79F                  
BOSCOBEL       FAIR      73  55  53 N6        29.77F                  
PRAIRIE DU CHI FAIR      73  54  52 W3        29.77F                  
PLATTEVILLE    FAIR      69  60  72 N12G18    29.77S                  
$$

WIZ056-057-062-063-064-067-068-201700-
SOUTH CENTRAL WISCONSIN
  
CITY           SKY/WX    TMP DP  RH WIND       PRES   REMARKS
REEDSBURG      FAIR      68  54  60 N7        29.77S                  
BARABOO/DELLS  FAIR      69  52  54 NE6       29.77S                  
LONE ROCK      FAIR      70  54  56 NE9       29.76F                  
MINERAL POINT  PTSUNNY   68  59  73 N12       29.77F                  
MADISON        PTSUNNY   69  56  62 N12       29.75S                  
MIDDLETON      FAIR      69  59  69 NE9       29.76S                  
WATERTOWN      CLOUDY    65  58  76 N9        29.75R                  
MONROE         PTSUNNY   65  56  72 N10       29.75S                  
JANESVILLE     CLOUDY    64  55  72 N14       29.74R                  
$$
 
WIZ051-052-058>065-066-070>072-201700-
SOUTHEAST WISCONSIN
  
CITY           SKY/WX    TMP DP  RH WIND       PRES   REMARKS
MILWAUKEE      PTSUNNY   60  50  69 N17G25    29.73R                  
WAUKESHA       PTSUNNY   63  55  77 NE7       29.74S                  
MILWAUKEE/TIMM PTSUNNY   64  54  68 NE13G22   29.73S                  
RACINE         PTSUNNY   58  51  78 N17G25    29.73R                  
KENOSHA        CLOUDY    62  58  86 N10G18    29.72R                  
FOND DU LAC    FAIR      68  56  65 N8        29.76R                  
SHEBOYGAN      FAIR      67  55  65 NE15      29.73S                  
WEST BEND      PTSUNNY   66  57  72 N10G16    29.74R                  
JUNEAU         PTSUNNY   65  56  71 N7        29.76R                  
$$

LSZ147-162-201700-
LAKE SUPERIOR
  
STATION/POSITION TIME  TEMP    WIND        PRES    WAVE
                       AIR SEA DIR/SP/G            HT/PER
                 (UTC) (F)     (DEG/KT/KT) (MB)    (FT/S)
W MID LAKE BUOY  1550   43 39   10/  6/  6 1011.7R   0
$$
 
LMZ867-665-643>646-201700-
LAKE MICHIGAN
  
STATION/POSITION TIME  TEMP    WIND        PRES    WAVE
                       AIR SEA DIR/SP/G            HT/PER
                 (UTC) (F)     (DEG/KT/KT) (MB)    (FT/S)
N MID LAKE BUOY  1550   45 39  360/  8/ 10 1008.9R   1/ 4
NORTHPORT PIER   1540   58     310/  4/  6 1008.5R
KEWAUNEE LAKESHO 1524   60      40/  6/ 13 1007.2
SHEBOYGAN LAKESH 1600   53      10/ 20/ 22 1007.0R
ATWATER BUOY     1530   52 52   30/ 17/ 23 1006.5F   4/19
MILWAUKEE LAKESH 1550   55      10/ 18/ 22   N/A
S MID LAKE BUOY  1550   48 47  350/ 14/ 16 1005.6R   2/ 4
KENOSHA   LAKESH 1600   57     360/ 14/ 16 1006.4
$$

TC  - TEMPERATURE IN CELSIUS
VSB - VISIBILITY IN STATUTE MILES
WCI - WIND CHILL INDEX
HX  - HEAT INDEX